CAPE
0 0 0 0 0 0 0 0 0 0 0 0 0 0 0 0 0 0 0 0 0 0 0 0 0 0 0 0 0 3 74 210 325 540 429 679 421 87 257 120 33 0 0
0 1 5 0 3 0 0 0 0 0 0 0 0 0 0 0 0 0 0 0 0 0 0 0 0 0 0 0 0 0 0 38 117 315 274 571 449 175 52 47 1 0 0
2 13 9 0 1 0 0 0 0 0 0 0 0 0 0 0 0 0 0 0 0 0 0 0 0 2 0 0 0 0 0 0 36 128 212 324 169 214 19 9 0 0 0
15 11 29 10 0 0 0 0 0 0 0 0 0 0 0 0 0 0 0 0 0 0 0 0 0 0 0 0 0 0 0 0 0 2 91 240 136 50 34 0 0 0 0
10 14 16 3 0 0 0 0 0 0 0 0 0 0 0 0 0 0 0 0 0 0 0 0 0 0 0 0 0 0 0 0 0 0 1 58 117 79 46 4 0 0 0
12 6 3 0 0 0 0 0 0 0 0 0 0 0 0 0 0 0 0 0 0 0 0 0 0 0 0 0 10 20 4 0 0 0 0 0 49 155 14 1 1 2 1
0 0 0 0 0 0 0 0 0 0 0 0 0 0 0 0 0 0 0 0 0 0 0 0 0 0 0 0 0 6 7 0 0 0 0 0 0 42 77 8 1 0 1
0 0 0 0 0 0 0 0 0 0 0 0 0 0 0 4 0 0 0 0 1 0 1 4 2 1 3 1 0 0 0 0 2 0 0 0 4 51 0 8 32 0 1
0 0 0 0 0 0 0 0 0 0 0 0 0 0 1 0 1 0 0 0 1 0 0 5 2 0 1 0 0 0 0 0 0 0 0 0 0 0 0 0 2 45 26
0 0 0 0 0 0 0 0 1 0 0 1 1 2 1 1 1 1 0 0 2 0 0 0 0 0 0 0 0 0 0 0 0 0 0 0 0 0 0 0 0 59 76
0 0 0 0 0 0 0 0 0 0 4 0 0 0 2 4 2 7 0 0 1 0 0 0 0 0 0 0 0 0 0 0 0 0 0 0 0 0 0 6 15 16 92
0 0 0 0 0 0 0 0 1 0 2 1 0 0 2 2 2 1 0 0 0 0 1 2 1 0 0 0 0 0 0 0 0 0 0 0 0 0 0 0 35 40 49
0 0 0 0 0 0 0 2 1 0 0 1 1 0 0 0 1 1 1 1 0 0 0 6 0 0 0 0 0 0 0 0 0 0 0 0 0 0 0 0 53 24 48
0 0 0 1 0 2 0 1 1 0 0 1 4 5 1 0 2 6 5 3 5 3 2 2 0 0 0 0 0 0 0 0 0 2 0 0 0 0 0 0 0 21 13
0 0 0 0 0 1 1 1 0 1 1 1 2 3 5 4 3 0 0 0 0 0 0 0 1 0 0 1 1 4 2 0 0 0 0 0 0 0 0 0 0 56 25
0 1 2 2 0 0 0 1 1 0 1 0 0 0 0 0 0 0 0 0 0 0 0 1 1 0 1 0 1 2 1 4 1 1 1 1 0 0 0 2 10 33 39
1 0 2 0 1 4 5 7 5 0 0 0 0 0 0 0 0 0 0 0 0 0 0 1 1 1 1 1 0 1 2 0 1 3 5 2 1 0 0 0 1 23 33
2 1 3 3 2 2 4 2 3 2 2 1 2 7 3 2 0 0 0 0 0 0 0 1 2 2 1 0 1 1 0 0 0 1 2 0 1 2 1 0 3 6 30
4 3 1 1 3 2 2 3 1 2 3 2 2 1 2 4 2 0 0 0 1 1 1 1 2 3 0 0 0 2 1 1 1 0 0 1 0 0 0 0 0 0 19
4 0 0 0 2 1 1 2 2 2 2 2 2 2 2 3 2 0 0 2 2 1 0 0 0 0 0 1 2 0 0 1 2 3 2 0 0 0 0 0 0 0 16
1 0 2 1 1 1 2 2 1 1 2 1 1 1 1 1 2 2 1 0 0 1 1 1 3 3 2 0 1 0 0 0 0 2 1 1 1 0 0 2 0 0 1
0 0 1 1 1 1 1 1 1 0 1 1 1 1 0 0 1 2 4 6 3 3 4 4 2 2 0 0 0 0 0 0 0 3 2 1 1 0 0 0 0 0 3
3 2 0 2 1 0 1 1 0 0 1 1 1 1 1 1 1 0 1 1 5 9 6 5 5 3 2 3 1 1 1 0 7 6 7 5 0 0 0 8 0 4 2
9 5 3 2 2 0 0 0 0 0 0 0 1 1 1 1 1 1 1 1 7 8 10 7 4 3 2 1 3 0 3 1 2 8 5 0 0 0 0 5 2 5 0
5 3 1 1 2 1 0 0 0 1 0 0 0 0 0 1 0 1 1 1 1 4 5 10 9 5 4 2 3 4 1 0 1 3 0 0 0 0 1 4 14 0 1
6 5 1 0 1 2 0 0 0 1 0 0 0 0 0 0 1 1 1 1 1 2 2 3 7 8 3 3 7 4 0 0 0 0 0 0 0 1 0 1 6 1 3
CIN
0 0 0 0 0 0 0 0 0 0 0 0 0 0 0 0 0 0 0 0 0 0 0 0 0 0 0 0 0 -10 -56 -19 -9 -2 -27 -17 -27 -50 -54 -141 -187 0 0
0 0 -1 0 -2 0 0 0 0 0 0 0 0 0 0 0 0 0 0 0 0 0 0 0 0 0 0 0 0 0 0 -51 -8 -4 -17 -2 -2 -35 -114 -112 0 0 0
-13 -8 -11 0 -1 0 0 0 0 0 0 0 0 0 0 0 0 0 0 0 0 0 0 0 0 -4 0 0 0 0 0 0 -37 -34 -4 -6 -26 -11 -94 -116 0 0 0
-2 -7 -10 -8 0 0 0 0 0 0 0 0 0 0 0 0 0 0 0 0 0 0 0 0 0 0 0 0 0 0 0 0 0 -57 -49 0 -22 -68 -91 0 0 0 0
-2 -6 -8 -13 0 0 0 0 0 0 0 0 0 0 0 0 0 0 0 0 0 0 0 0 0 0 0 0 0 0 0 0 0 0 -3 -30 -17 -53 -77 -158 0 0 0
-18 -12 -10 0 0 0 0 0 0 0 0 0 0 0 0 0 0 0 0 0 0 0 0 0 0 0 0 0 -12 -6 -11 0 0 0 0 0 -45 -3 -86 -72 0 0 0
0 0 0 0 0 0 0 0 0 0 0 0 0 0 0 0 0 0 0 0 0 0 0 0 0 0 0 0 0 -9 -7 0 0 0 0 0 0 -19 -5 -38 0 0 -1
0 0 0 0 0 0 0 0 0 0 0 0 0 0 -1 0 0 0 0 -2 0 0 -1 -3 -3 -3 -3 -1 0 0 0 0 -7 0 0 0 -16 -17 0 -7 -37 0 -15
-1 0 0 0 0 0 0 0 0 0 0 0 0 0 -2 -2 -3 0 0 0 -2 0 0 -1 -3 -5 -1 -2 -1 0 0 0 0 0 0 0 0 0 0 0 -4 -11 -6
0 0 0 0 0 0 0 0 -2 0 0 0 0 -1 0 -1 -2 -5 0 -1 -2 0 0 0 0 0 0 0 0 0 0 0 0 0 0 0 0 0 0 0 0 -1 0
0 0 0 0 0 0 0 0 0 0 -3 -2 0 -1 -1 -2 -6 -5 0 0 -5 0 0 0 0 0 0 0 0 0 0 0 0 0 0 0 0 0 -1 -18 -19 -12 -1
0 0 0 0 0 0 -1 0 -1 -1 0 -1 -1 0 -1 -1 -3 -7 0 0 0 0 -3 -2 -1 0 0 0 0 0 0 0 0 0 0 0 0 0 0 0 -34 -21 -21
0 0 0 0 0 -1 0 -1 -1 -1 -1 0 -2 -1 -2 -1 -1 -1 -6 -11 0 0 -9 -3 0 0 0 0 0 0 0 0 0 0 0 0 0 0 0 0 -32 -7 -21
0 -1 0 -1 0 0 0 0 -1 0 0 0 -2 -1 -1 0 -2 -2 -3 -3 -8 -13 -6 -1 0 0 0 0 0 0 0 0 0 -2 0 0 0 0 0 0 0 -8 -16
0 0 -1 0 0 -1 -1 -2 -2 -1 -1 -1 -1 -1 -1 -3 -2 -3 0 0 0 0 0 0 0 0 0 0 -2 -2 -7 0 -1 -1 -4 0 0 0 0 0 0 -7 -15
0 -1 -1 -3 -4 -1 0 -1 -1 -4 -6 -10 0 0 0 0 -2 0 0 0 0 0 0 0 0 0 0 0 0 -1 -3 -2 -3 -5 -2 -5 0 0 0 -10 -8 -5 -12
-2 -8 -5 -2 -1 -2 -1 -1 0 -1 0 0 0 0 0 -1 0 0 0 0 0 0 0 0 0 0 0 0 0 -1 -1 0 -1 -1 -2 -3 -1 0 0 0 -34 -3 -12
-7 -2 -1 -1 -1 -1 0 -1 -1 -1 -2 0 0 -1 -2 -4 -4 -3 -10 0 0 0 0 0 0 0 0 0 0 -2 -1 0 -1 -2 -2 -1 -6 -1 0 0 -20 -6 -5
-2 -1 -3 -2 0 -1 0 0 -1 0 0 0 -1 0 0 0 0 0 0 0 0 0 0 0 0 0 0 0 0 -1 -1 -2 -1 -1 -1 0 0 0 0 0 0 0 -3
-1 -1 0 0 0 0 0 0 0 0 0 0 0 0 0 0 0 0 0 0 0 0 0 0 0 0 0 0 -1 -1 -1 -2 0 -1 -4 0 0 0 0 0 0 0 -1
-1 -1 0 0 0 0 0 0 0 0 0 0 0 0 0 0 0 0 -2 0 0 0 0 0 0 0 0 0 0 0 0 0 0 -1 -2 -4 -3 0 0 -2 -1 0 -1
-2 0 0 0 0 0 0 0 0 0 0 0 0 0 0 0 0 0 0 0 0 0 0 0 0 0 0 0 0 0 0 0 -1 -1 -1 -2 -1 0 0 -3 -1 0 -1
-1 -1 -1 0 0 0 0 0 0 0 0 0 0 0 0 0 0 0 0 0 0 0 0 0 0 0 0 0 0 0 0 0 -1 -2 -1 -1 0 0 0 0 0 -8 -1
-3 -1 -1 0 0 0 0 0 0 0 0 0 0 0 0 0 0 0 0 0 0 0 0 0 0 0 0 0 0 0 0 0 -1 0 -1 0 0 0 0 -1 -2 -1 0
-2 -1 -1 -1 0 0 0 0 0 0 0 0 0 0 0 0 0 0 0 0 0 0 0 0 0 0 0 0 0 0 0 0 -1 -2 0 0 0 0 -15 -2 -1 0 -2
-1 -1 -2 0 0 0 0 0 0 0 0 0 0 0 0 0 0 0 0 0 0 0 0 0 0 0 -1 0 0 0 0 0 0 0 0 0 0 0 0 -4 -1 0 0
Wind_Speed
11 13 14 15 16 17 19 20 22 25 27 30 32 34 34 34 33 33 32 31 32 32 30 30 31 33 32 33 35 33 31 31 33 31 28 22 19 14 19 13 9 8 7
9 11 13 15 16 18 20 22 25 27 29 32 34 35 35 34 34 34 34 33 32 32 33 34 33 32 34 32 34 34 32 29 30 33 32 26 22 16 12 11 12 11 8
8 11 12 15 17 19 22 24 27 29 32 34 35 35 36 35 35 33 32 32 32 33 33 35 35 34 31 33 34 33 33 31 30 30 32 25 25 21 19 16 14 12 9
8 11 11 15 18 21 23 25 28 30 34 35 35 35 36 36 36 34 30 31 32 34 35 35 35 35 33 28 36 33 33 33 32 31 31 29 26 24 21 18 18 14 12
9 12 15 17 19 21 24 27 29 32 34 34 35 35 35 35 33 30 31 33 35 36 35 35 34 35 34 32 35 38 34 34 33 32 32 30 28 25 23 21 21 18 15
13 15 16 19 21 24 27 29 31 33 34 35 35 36 36 34 29 30 32 34 36 36 36 33 32 32 33 32 32 37 38 36 35 33 33 32 32 29 26 24 21 21 22
15 17 19 21 24 27 29 31 32 33 33 36 37 36 36 34 26 29 31 34 37 36 34 31 30 29 29 29 31 31 34 37 38 36 37 33 34 31 26 24 21 21 23
18 19 21 25 28 30 32 33 32 32 35 37 37 36 35 33 28 31 32 35 35 34 34 33 31 29 27 28 28 30 31 33 36 38 38 37 33 28 28 29 26 22 22
18 21 25 28 30 32 33 34 34 35 36 38 37 36 35 34 34 34 31 33 33 34 32 32 32 32 29 28 28 30 32 34 36 37 36 39 41 37 31 30 33 27 25
22 25 28 30 32 34 35 36 35 35 36 35 36 35 35 33 32 30 26 28 32 32 32 31 27 25 26 28 28 29 30 30 32 35 38 38 37 38 33 29 30 31 22
25 27 29 31 33 34 35 35 37 37 37 36 36 34 32 30 29 31 23 26 30 31 32 31 26 27 29 29 30 30 31 33 35 36 36 34 34 31 29 27 25 28 26
27 28 30 32 33 34 35 35 35 36 36 34 32 32 30 28 29 28 26 26 29 31 32 31 28 36 36 34 32 31 33 36 35 34 35 35 31 32 33 31 26 27 28
27 29 32 33 33 33 34 35 35 33 32 32 32 31 30 29 29 29 31 32 29 29 30 34 38 37 35 35 33 28 30 30 31 31 32 32 33 33 32 34 29 26 32
29 31 32 32 33 34 34 33 32 32 32 33 33 32 30 30 30 30 29 30 27 28 30 32 34 38 38 36 34 32 28 27 29 30 32 33 33 34 34 30 32 27 26
30 31 33 33 34 34 34 34 34 33 34 36 35 35 36 35 33 34 38 37 36 38 42 39 37 36 36 34 33 31 27 26 28 30 32 34 34 34 34 32 32 21 27
32 34 34 34 34 33 34 35 32 34 34 36 33 35 37 37 38 36 35 38 39 38 38 39 37 36 35 35 33 33 31 29 28 29 31 32 33 33 32 31 32 26 26
33 34 33 33 33 34 35 35 38 35 34 35 36 35 35 40 40 39 36 35 36 35 36 34 34 35 37 36 35 33 33 31 30 30 29 30 31 33 33 32 32 30 25
33 34 33 34 35 35 35 35 34 35 37 36 32 37 41 42 42 40 39 39 37 30 26 22 21 30 30 32 31 30 32 31 31 32 31 30 31 31 32 31 31 30 26
34 33 34 35 33 32 31 30 25 21 21 26 39 37 37 38 38 37 35 33 35 33 29 29 25 15 9 29 30 28 30 31 31 31 31 29 30 31 33 32 32 31 26
32 33 35 33 32 18 10 13 12 9 11 12 12 16 30 39 38 37 35 34 35 33 30 30 31 30 31 30 26 25 29 29 28 28 29 30 29 29 33 35 32 32 29
32 30 32 37 37 38 31 33 10 14 16 14 12 11 17 25 36 38 37 36 36 35 35 33 31 31 30 31 30 27 26 27 26 27 25 28 29 29 32 32 32 32 30
33 33 34 37 38 37 29 9 15 16 11 14 13 11 10 8 8 28 35 34 34 34 34 34 33 31 29 29 29 30 25 24 22 24 24 28 29 30 33 33 33 33 30
33 34 35 38 37 37 26 14 20 18 11 10 10 10 13 12 15 17 26 35 32 31 31 32 32 32 29 28 29 31 27 21 22 20 29 30 31 32 32 33 35 35 33
34 35 36 38 35 31 26 15 27 23 23 16 10 10 10 9 10 12 6 4 24 31 30 30 30 31 29 29 30 31 28 30 30 31 30 30 32 32 32 33 34 34 35
33 37 39 38 33 31 28 27 30 26 16 14 10 11 12 12 9 11 10 12 16 32 32 31 30 30 30 32 33 32 31 31 31 28 28 30 30 34 34 32 31 32 32
35 37 40 38 35 32 33 32 18 14 14 11 10 10 11 11 9 9 11 9 6 2 31 31 30 30 30 31 31 32 32 32 29 28 27 28 30 28 28 30 31 31 29
Wind_Direction
8 4 4 360 357 354 351 348 346 343 340 338 335 333 331 329 329 328 327 324 321 318 317 312 306 300 300 298 295 299 299 296 289 294 302 309 312 336 299 337 359 352 5
11 4 2 356 355 350 346 343 340 338 338 335 333 331 329 327 326 324 321 322 320 316 312 308 305 303 294 294 295 294 295 301 294 287 290 297 302 313 329 333 336 338 345
1 351 351 349 346 343 341 339 337 335 334 332 331 329 326 326 324 325 324 322 321 317 313 305 302 303 300 291 292 291 289 293 296 294 288 298 295 300 309 316 320 325 332
352 346 347 345 341 338 337 336 335 334 332 330 330 328 326 325 322 322 325 322 319 316 312 307 302 299 301 300 282 289 284 285 290 290 291 290 292 297 300 303 303 310 318
336 342 341 338 336 335 335 333 333 333 332 331 329 327 326 325 324 325 323 320 317 313 312 309 304 299 300 298 288 279 281 280 283 287 286 289 289 291 290 298 299 300 305
334 336 337 335 333 332 331 330 330 330 330 329 328 326 325 325 326 326 324 319 316 313 310 310 308 305 300 297 294 283 273 273 277 280 283 283 285 285 289 290 294 295 293
333 331 329 330 329 328 328 327 327 327 329 328 326 325 324 324 329 329 326 321 315 311 310 311 311 308 305 302 298 295 282 274 274 278 280 284 283 286 288 287 289 292 292
326 325 326 327 326 326 325 325 325 325 325 325 324 323 323 326 329 327 323 320 315 312 309 308 308 308 308 305 301 296 293 285 279 277 275 279 284 287 285 289 284 289 291
324 326 326 326 325 325 323 324 324 323 323 323 321 322 323 324 322 321 323 319 316 313 311 309 309 305 307 306 301 298 292 289 284 280 283 280 277 277 282 284 278 276 282
327 326 326 326 325 323 323 322 323 323 323 323 322 322 323 324 323 321 323 322 316 315 313 311 318 318 316 309 304 300 297 294 291 287 280 280 281 274 273 276 276 272 271
325 325 325 325 324 324 324 323 322 322 321 321 321 323 324 325 323 321 323 321 316 314 312 310 311 313 313 309 304 298 294 294 290 286 283 284 281 281 275 273 274 271 268
326 325 324 325 325 325 325 324 323 323 322 323 324 324 326 326 325 324 322 319 316 312 310 308 309 302 303 303 302 298 294 290 290 287 281 276 279 276 271 272 272 270 265
327 326 325 326 326 327 326 325 325 327 326 325 325 325 325 324 322 321 317 314 314 312 310 305 301 302 303 301 301 302 299 294 289 286 283 278 273 272 275 269 269 269 261
328 326 327 328 329 329 329 329 328 327 326 324 322 322 322 322 323 321 319 317 317 314 312 309 306 301 299 298 297 297 298 295 289 285 281 277 273 269 268 272 266 266 269
331 330 330 330 330 329 328 327 325 324 322 319 317 316 314 315 317 314 309 309 308 304 299 303 304 302 299 298 296 294 294 293 289 284 279 274 271 269 265 265 265 269 262
333 330 332 331 331 330 329 327 327 323 321 320 317 313 311 310 310 311 310 306 303 305 303 299 301 299 295 294 292 290 287 287 286 284 277 274 270 267 266 265 263 263 261
336 335 336 336 334 332 330 329 326 328 327 324 319 314 312 307 305 306 308 309 308 307 303 303 301 297 291 289 286 285 282 282 282 281 280 275 270 266 264 263 263 259 257
344 341 341 339 337 336 334 333 333 330 328 328 328 318 311 306 301 302 302 302 303 309 310 309 308 301 296 289 285 284 280 279 278 276 276 275 269 264 261 260 261 263 254
348 348 347 345 345 345 344 344 346 343 338 337 325 325 321 313 306 304 306 303 298 302 307 307 307 310 307 286 284 286 279 274 275 274 273 275 269 264 258 257 257 258 257
356 354 351 355 355 308 296 352 349 324 312 308 304 280 285 310 307 303 306 302 295 298 302 301 295 290 282 283 292 292 285 282 285 285 279 273 271 268 257 253 253 252 257
359 3 2 344 330 345 358 351 323 347 347 337 313 306 277 273 283 306 302 301 295 293 292 292 291 288 285 283 285 289 291 290 291 288 285 276 269 261 253 251 249 248 255
360 358 358 356 345 333 308 334 3 359 335 293 295 299 291 293 337 335 316 308 301 295 291 286 286 286 286 285 285 282 291 296 297 291 282 270 262 253 248 247 244 242 249
5 356 1 350 338 328 309 10 13 10 316 343 355 0 9 4 3 359 340 308 307 302 296 289 284 282 284 286 282 277 286 299 297 288 256 251 248 243 246 243 238 237 243
11 1 360 344 328 318 312 320 16 17 15 302 357 6 359 348 354 2 322 314 335 307 300 291 285 280 280 280 274 269 279 267 254 239 240 244 243 240 245 241 236 238 236
13 2 352 337 323 318 314 315 16 17 311 307 349 7 8 7 355 9 8 7 356 311 294 288 282 276 271 264 256 254 250 247 247 248 247 243 240 238 235 238 236 235 237
11 4 350 336 327 321 321 320 322 356 323 327 343 358 3 2 2 7 15 12 6 294 284 281 273 265 259 250 250 243 240 240 247 246 247 246 242 241 242 237 233 230 240